Regional Weather Roundup
Issued by NWS Sioux Falls, SD

Home | Current Version | Previous Version | Text Only | Print | Product List | Glossary Off
Versions: 1 2 3 4 5 6 7 8 9 10 11 12 13 14 15 16 17 18 19 20 21 22 23 24 25 26 27 28 29 30 31 32 33 34 35 36 37 38 39 40 41 42 43 44 45 46 47 48 49 50

000
ASUS43 KFSD 291110
RWRFSD

WEATHER ROUNDUP FOR SE SOUTH DAKOTA/SW MINNESOTA/NW IOWA
NATIONAL WEATHER SERVICE SIOUX FALLS SD
600 AM CDT FRI AUG 29 2014

NOTE: "FAIR" INDICATES FEW OR NO CLOUDS BELOW 12,000 FEET WITH NO
SIGNIFICANT WEATHER AND OR OBSTRUCTIONS TO VISIBILITY.


SDZ038>040-050-052>070-291200-
SOUTHEAST SOUTH DAKOTA

CITY           SKY/WX    TMP DP  RH WIND       PRES   REMARKS
CHAMBERLAIN    CLOUDY    66  65  97 W6        29.81S
HURON          CLOUDY    68  67  96 NW3       29.77R FOG
MADISON        FOG       68  68 100 S5        29.77R VSB 1/2
MITCHELL       CLOUDY    68  68 100 NW3       29.77S FOG
SIOUX FALLS    CLOUDY    70  68  93 S7        29.77S
WINNER         CLOUDY    66  64  93 W8        29.83S
YANKTON        CLOUDY    66  64  94 S3        29.77S
$$

MNZ071-072-080-081-089-090-097-098-291200-
SOUTHWEST MINNESOTA

CITY           SKY/WX    TMP DP  RH WIND       PRES   REMARKS
FAIRMONT       MOCLDY    64  63  94 S12       29.80F
JACKSON        MOCLDY    68  63  83 S7        29.81R
LUVERNE        CLOUDY    72  68  88 S7        29.79R FOG
MARSHALL       CLOUDY    66  64  94 CALM      29.76S
MONTEVIDEO     FOG       66  66 100 CALM      29.78R VSB 1/4
PIPESTONE      CLOUDY    70  70 100 SW8       29.78S FOG
REDWOOD FALLS  CLOUDY    70  69  97 S9        29.77R
TRACY          LGT RAIN  72  71  96 CALM      29.77F
WINDOM         CLOUDY    68  64  88 S5        29.80R
WORTHINGTON    MOCLDY    66  66 100 S10       29.81S
$$

IAZ001>003-012>014-020>022-031-032-NEZ013-014-SDZ071-291200-
NORTHWEST IOWA

CITY           SKY/WX    TMP DP  RH WIND       PRES   REMARKS
DENISON        CLOUDY    68  66  94 SE9       29.79S
ESTHERVILLE    MOCLDY    66  65  96 S12       29.80F
LE MARS        PTCLDY    70  68  94 S3        29.79S
ORANGE CITY    CLOUDY    70  66  88 S5        29.80S
SHELDON        CLOUDY    68  66  94 S8        29.79S
SIOUX CITY     MOCLDY    71  69  93 CALM      29.77S
SPENCER        PTCLDY    67  65  93 S8        29.80F
STORM LAKE     MOCLDY    68  68 100 S12       29.81F
$$

ABBREVIATIONS USED IN REMARKS
   TC - TEMPERATURE IN CELSIUS
  WCI - WIND CHILL INDEX
   HX - HEAT INDEX
  VSB - VISIBILITY




USA.gov is the U.S. government's official web portal to all federal, state and local government web resources and services.